period_start,C,m1,H,J0,J1,J2,J3,J4,J5,JA,JB,JC,JD,JJ,JK,JN,#
2013-11-14 00:00:41,0.04,0.26,0.00,26.67,28.57,31.27,5.77,30.46,1006.99,2040.12,3382.00,3271.21,3537.41,349.25,316.23,5.22,0000 0000 0000 0000 000000
2013-11-14 00:01:42,0.04,0.26,0.00,26.69,28.57,31.28,5.82,30.46,1007.00,2040.14,3381.97,3271.13,3537.23,349.58,317.03,5.23,0000 0000 0000 0000 000000
2013-11-14 00:02:42,0.03,0.26,0.00,26.68,28.57,31.25,5.96,30.33,1006.98,2040.10,3381.90,3271.06,3537.10,350.77,317.74,5.23,0000 0000 0000 0000 000000
2013-11-14 00:03:42,0.01,0.26,0.00,26.66,28.57,31.26,5.76,30.17,1006.99,2040.06,3381.69,3271.03,3537.04,348.53,315.65,5.24,0000 0000 0000 0000 000000
2013-11-14 00:04:42,0.02,0.26,0.00,26.65,28.57,31.25,5.72,30.13,1006.98,2040.05,3381.34,3271.01,3537.01,349.68,316.69,5.25,0000 0000 0000 0000 000000
2013-11-14 00:05:43,0.04,0.26,0.00,26.64,28.57,31.27,5.88,30.50,1006.89,2040.04,3381.13,3271.00,3536.99,349.38,316.41,5.25,0000 0000 0000 0000 000000
2013-11-14 00:06:43,0.01,0.26,0.00,26.66,28.57,31.25,5.72,30.33,1006.88,2040.03,3381.04,3271.00,3536.98,349.52,316.51,5.26,0000 0000 0000 0000 000000
2013-11-14 00:07:43,0.02,0.26,0.00,26.71,28.57,31.26,5.77,30.08,1006.86,2040.04,3381.02,3270.99,3536.97,350.30,317.15,5.26,0000 0000 0000 0000 000000
2013-11-14 00:08:43,0.02,0.26,0.00,26.70,28.57,31.27,5.76,30.42,1006.86,2040.04,3381.00,3270.96,3536.94,348.79,315.80,5.27,0000 0000 0000 0000 000000
2013-11-14 00:09:43,-0.01,0.26,0.00,26.72,28.57,31.26,6.02,30.50,1006.86,2040.02,3381.00,3270.92,3536.89,351.19,317.95,5.27,0000 0000 0000 0000 000000
2013-11-14 00:10:43,0.02,0.26,0.00,26.73,28.57,31.25,5.88,30.54,1006.86,2040.04,3380.97,3270.86,3536.72,350.64,317.53,5.28,0000 0000 0000 0000 000000
2013-11-14 00:11:43,0.04,0.26,0.00,26.69,28.57,31.25,5.85,30.38,1006.85,2040.04,3380.92,3270.90,3536.67,350.86,317.81,5.29,0000 0000 0000 0000 000000
2013-11-14 00:12:44,0.01,0.26,0.00,26.71,28.57,31.25,5.77,30.54,1006.85,2040.03,3380.82,3270.84,3536.41,348.66,315.67,5.29,0000 0000 0000 0000 000000
2013-11-14 00:13:44,0.06,0.26,0.00,26.71,28.57,31.26,5.85,30.54,1006.85,2040.03,3380.55,3270.69,3536.19,349.46,316.39,5.30,0000 0000 0000 0000 000000
2013-11-14 00:14:44,0.09,0.27,0.00,26.74,28.57,31.24,5.76,30.29,1006.85,2040.02,3380.26,3270.43,3536.08,349.79,316.67,5.30,0000 0000 0000 0000 000000
2013-11-14 00:15:44,0.08,0.27,0.00,26.82,28.57,31.25,5.78,30.29,1006.85,2040.01,3380.11,3270.29,3536.05,349.34,316.18,5.31,0000 0000 0000 0000 000000
2013-11-14 00:16:45,0.04,0.27,0.00,26.86,28.57,31.22,5.72,30.38,1006.85,2040.03,3380.04,3270.34,3536.03,350.09,317.14,5.32,0000 0000 0000 0000 000000
2013-11-14 00:17:45,0.01,0.27,0.00,26.87,28.57,31.22,5.77,30.17,1006.85,2040.05,3380.01,3270.33,3536.02,350.04,316.67,5.32,0000 0000 0000 0000 000000
2013-11-14 00:18:45,0.02,0.27,0.00,26.91,28.57,31.21,5.92,30.38,1006.85,2040.06,3380.00,3270.18,3536.00,350.40,317.04,5.33,0000 0000 0000 0000 000000
2013-11-14 00:19:45,0.05,0.27,0.00,26.92,28.57,31.21,5.85,30.25,1006.85,2040.03,3380.00,3270.08,3536.00,350.02,316.68,5.33,0000 0000 0000 0000 000000
2013-11-14 00:20:46,-0.00,0.27,0.00,26.93,28.57,31.18,5.88,30.33,1006.85,2040.01,3380.00,3270.03,3536.00,350.57,317.39,5.34,0000 0000 0000 0000 000000
2013-11-14 00:21:46,-0.00,0.27,0.00,26.93,28.57,31.17,5.86,30.42,1006.85,2040.04,3379.99,3270.01,3536.00,350.93,317.37,5.34,0000 0000 0000 0000 000000
2013-11-14 00:22:46,0.03,0.27,0.00,26.93,28.57,31.25,5.79,30.33,1006.85,2040.05,3379.92,3270.00,3536.00,349.24,316.00,5.35,0000 0000 0000 0000 000000
2013-11-14 00:23:46,0.01,0.27,0.00,26.95,28.57,31.20,5.87,30.50,1006.85,2040.05,3379.79,3270.01,3535.95,348.97,315.44,5.36,0000 0000 0000 0000 000000
2013-11-14 00:24:46,0.02,0.27,0.00,26.96,28.57,31.20,5.70,30.46,1006.85,2040.02,3379.41,3270.00,3535.86,349.53,316.26,5.36,0000 0000 0000 0000 000000
2013-11-14 00:25:46,0.04,0.27,0.00,26.97,28.57,31.22,5.78,30.29,1006.85,2040.00,3379.21,3270.00,3535.66,349.86,316.92,5.37,0000 0000 0000 0000 000000
2013-11-14 00:26:47,0.05,0.27,0.00,26.98,28.57,31.19,5.73,30.29,1006.85,2040.01,3379.09,3270.00,3535.42,349.26,316.19,5.37,0000 0000 0000 0000 000000
2013-11-14 00:27:47,0.03,0.27,0.00,26.98,28.57,31.16,5.68,30.04,1006.86,2040.01,3379.04,3270.00,3535.28,349.94,316.55,5.38,0000 0000 0000 0000 000000
2013-11-14 00:28:47,0.02,0.27,0.00,26.99,28.57,31.18,5.87,30.25,1006.85,2040.00,3379.02,3269.99,3535.17,350.32,316.34,5.39,0000 0000 0000 0000 000000
2013-11-14 00:29:48,0.00,0.27,0.00,26.97,28.57,31.24,5.92,30.29,1006.85,2040.01,3379.00,3269.99,3535.13,351.47,317.94,5.39,0000 0000 0000 0000 000000
2013-11-14 00:30:48,0.01,0.27,0.00,26.96,28.57,31.21,5.85,30.42,1006.85,2040.02,3379.00,3269.97,3535.09,348.77,315.51,5.40,0000 0000 0000 0000 000000
2013-11-14 00:31:48,0.03,0.27,0.00,26.97,28.57,31.22,5.63,30.29,1006.85,2040.02,3379.00,3269.98,3535.05,349.13,316.00,5.40,0000 0000 0000 0000 000000
2013-11-14 00:32:48,-0.00,0.27,0.00,26.98,28.56,31.16,5.74,30.17,1006.85,2040.00,3379.00,3269.95,3535.03,350.19,316.08,5.41,0000 0000 0000 0000 000000
2013-11-14 00:33:49,-0.00,0.27,0.00,27.00,28.55,31.20,5.72,30.13,1006.85,2040.01,3378.98,3269.94,3535.01,350.07,316.65,5.42,0000 0000 0000 0000 000000
2013-11-14 00:34:49,0.01,0.27,0.00,27.00,28.55,31.18,5.81,30.21,1006.84,2040.02,3378.98,3269.95,3535.01,349.09,315.75,5.42,0000 0000 0000 0000 000000
2013-11-14 00:35:49,0.00,0.27,0.00,27.00,28.55,31.22,5.77,30.33,1006.84,2040.02,3378.92,3269.95,3535.00,350.21,316.76,5.43,0000 0000 0000 0000 000000
2013-11-14 00:36:49,0.00,0.27,0.00,27.00,28.55,31.27,5.83,30.42,1006.85,2040.03,3378.77,3269.93,3535.00,349.43,316.21,5.43,0000 0000 0000 0000 000000
2013-11-14 00:37:50,0.04,0.27,0.00,27.01,28.55,31.20,5.76,30.50,1006.84,2040.05,3378.48,3269.92,3535.00,349.46,316.33,5.44,0000 0000 0000 0000 000000
2013-11-14 00:38:50,0.06,0.27,0.00,27.01,28.55,31.20,5.98,30.33,1006.84,2040.05,3378.25,3269.85,3535.00,351.17,317.61,5.44,0000 0000 0000 0000 000000
2013-11-14 00:39:50,0.04,0.27,0.00,27.01,28.55,31.24,5.98,30.29,1006.84,2040.06,3378.13,3269.81,3535.00,351.56,317.98,5.45,0000 0000 0000 0000 000000
2013-11-14 00:40:50,0.05,0.27,0.00,27.02,28.55,31.27,5.88,30.38,1006.81,2040.08,3378.08,3269.76,3535.00,349.77,316.33,5.46,0000 0000 0000 0000 000000
2013-11-14 00:41:51,0.02,0.27,0.00,27.03,28.55,31.19,5.73,30.33,1006.81,2040.05,3378.03,3269.51,3534.98,349.96,316.54,5.46,0000 0000 0000 0000 000000
2013-11-14 00:42:51,0.02,0.27,0.00,27.02,28.55,31.14,5.89,30.46,1006.85,2040.04,3378.00,3269.26,3534.93,351.03,317.35,5.47,0000 0000 0000 0000 000000
2013-11-14 00:43:51,0.05,0.27,0.00,27.00,28.55,31.27,5.86,30.63,1006.85,2040.03,3377.99,3269.13,3534.84,349.68,316.29,5.47,0000 0000 0000 0000 000000
2013-11-14 00:44:51,0.03,0.27,0.00,26.99,28.55,31.19,5.89,30.63,1006.84,2040.03,3377.99,3269.07,3534.70,350.47,317.06,5.48,0000 0000 0000 0000 000000
2013-11-14 00:45:52,0.02,0.27,0.00,27.00,28.55,31.21,5.77,30.29,1006.84,2040.04,3377.98,3269.06,3534.50,350.19,316.77,5.49,0000 0000 0000 0000 000000
2013-11-14 00:46:52,0.03,0.27,0.00,27.01,28.55,31.21,5.80,30.29,1006.77,2040.04,3377.99,3269.03,3534.29,349.05,315.69,5.49,0000 0000 0000 0000 000000
2013-11-14 00:47:52,0.01,0.27,0.00,27.00,28.55,31.29,5.83,30.42,1006.79,2040.02,3377.95,3269.01,3534.13,350.24,316.77,5.50,0000 0000 0000 0000 000000
2013-11-14 00:48:52,0.01,0.27,0.00,27.00,28.55,31.27,5.72,30.46,1006.83,2040.04,3377.86,3269.03,3534.10,350.03,316.59,5.50,0000 0000 0000 0000 000000
2013-11-14 00:49:53,0.04,0.27,0.00,27.02,28.55,31.25,5.99,30.50,1006.83,2040.11,3377.82,3269.02,3534.07,349.96,316.51,5.51,0000 0000 0000 0000 000000
2013-11-14 00:50:53,0.07,0.27,0.00,27.03,28.55,31.27,5.79,30.17,1006.84,2040.11,3377.50,3269.01,3534.07,350.12,316.66,5.51,0000 0000 0000 0000 000000
2013-11-14 00:51:53,0.03,0.27,0.00,27.04,28.55,31.29,5.76,30.21,1006.85,2040.09,3377.22,3269.01,3534.03,350.41,316.91,5.52,0000 0000 0000 0000 000000
2013-11-14 00:52:53,0.02,0.27,0.00,27.03,28.55,31.25,5.68,30.46,1006.84,2040.07,3377.10,3269.01,3534.02,348.54,315.54,5.53,0000 0000 0000 0000 000000
2013-11-14 00:53:54,-0.01,0.27,0.00,27.03,28.55,31.27,5.80,30.33,1006.85,2040.04,3377.03,3269.00,3534.01,350.03,316.92,5.53,0000 0000 0000 0000 000000
2013-11-14 00:54:54,0.00,0.27,0.00,27.03,28.55,31.26,5.78,30.33,1006.85,2040.04,3377.01,3269.00,3534.00,349.89,316.44,5.54,0000 0000 0000 0000 000000
2013-11-14 00:55:54,0.00,0.27,0.00,27.03,28.55,31.30,5.77,30.13,1006.85,2040.06,3377.00,3269.00,3534.00,350.02,316.11,5.54,0000 0000 0000 0000 000000
2013-11-14 00:56:54,0.01,0.27,0.00,27.03,28.55,31.29,5.92,30.42,1006.85,2040.04,3377.00,3269.00,3534.00,350.61,317.35,5.55,0000 0000 0000 0000 000000
2013-11-14 00:57:55,-0.02,0.27,0.00,27.05,28.55,31.28,5.78,30.25,1006.85,2040.03,3377.00,3269.00,3534.00,350.44,316.63,5.56,0000 0000 0000 0000 000000
2013-11-14 00:58:55,0.00,0.27,0.00,27.06,28.55,31.29,5.99,30.29,1006.85,2040.03,3377.00,3269.00,3533.99,350.22,316.71,5.56,0000 0000 0000 0000 000000
2013-11-14 00:59:55,0.00,0.27,0.00,27.05,28.55,31.31,5.92,30.25,1006.85,2040.05,3376.99,3268.99,3533.99,350.38,316.76,5.57,0000 0000 0000 0000 000000
2013-11-14 01:00:55,0.03,0.27,0.00,27.07,28.55,31.29,5.83,30.17,1006.85,2040.06,3376.96,3268.99,3533.99,350.18,316.52,5.57,0000 0000 0000 0000 000000
2013-11-14 01:01:55,0.01,0.27,0.00,27.05,28.55,31.32,5.73,30.29,1006.85,2040.09,3376.92,3268.99,3533.99,349.80,316.34,5.58,0000 0000 0000 0000 000000
2013-11-14 01:02:56,0.02,0.27,0.00,26.97,28.55,31.32,5.78,30.29,1006.85,2040.08,3376.80,3268.98,3533.94,349.90,316.21,5.59,0000 0000 0000 0000 000000
2013-11-14 01:03:56,0.00,0.27,0.00,26.88,28.55,31.32,5.70,30.46,1006.85,2040.08,3376.45,3268.94,3533.83,350.03,316.73,5.59,0000 0000 0000 0000 000000
2013-11-14 01:04:56,0.08,0.27,0.00,26.74,28.55,31.32,5.79,30.46,1006.85,2040.08,3376.33,3268.92,3533.81,350.20,317.35,5.60,0000 0000 0000 0000 000000
2013-11-14 01:05:56,0.03,0.27,0.00,26.59,28.55,31.28,5.86,30.13,1006.85,2040.09,3376.24,3268.90,3533.70,349.06,316.07,5.60,0000 0000 0000 0000 000000
2013-11-14 01:06:56,0.01,0.27,0.00,26.48,28.55,31.30,6.03,30.58,1006.85,2040.06,3376.11,3268.71,3533.39,350.30,317.80,5.61,0000 0000 0000 0000 000000
2013-11-14 01:07:56,0.09,0.27,0.00,26.42,28.55,31.31,5.91,30.54,1006.85,2040.07,3376.05,3268.48,3533.18,350.14,317.51,5.61,0000 0000 0000 0000 000000
2013-11-14 01:08:56,0.08,0.27,0.00,26.42,28.55,31.30,5.75,30.17,1006.85,2040.06,3376.03,3268.35,3533.13,349.57,316.67,5.62,0000 0000 0000 0000 000000
2013-11-14 01:09:57,0.00,0.27,0.00,26.41,28.56,31.25,5.77,30.29,1006.85,2040.04,3376.02,3268.25,3533.06,349.22,316.26,5.63,0000 0000 0000 0000 000000
2013-11-14 01:10:57,0.02,0.27,0.00,26.44,28.57,31.23,5.82,30.50,1006.85,2040.02,3376.00,3268.16,3533.02,350.30,317.44,5.63,0000 0000 0000 0000 000000
2013-11-14 01:11:57,0.03,0.27,0.00,26.43,28.57,31.28,5.84,30.38,1006.85,2040.04,3376.00,3268.10,3533.00,350.10,317.27,5.64,0000 0000 0000 0000 000000
2013-11-14 01:12:57,0.01,0.27,0.00,26.51,28.57,31.26,5.88,30.42,1006.86,2040.03,3376.00,3268.05,3533.00,349.54,316.68,5.64,0000 0000 0000 0000 000000
2013-11-14 01:13:58,-0.01,0.27,0.00,26.56,28.57,31.24,5.88,30.54,1006.85,2040.04,3376.00,3268.03,3533.00,349.77,316.84,5.65,0000 0000 0000 0000 000000
2013-11-14 01:14:58,0.02,0.27,0.00,26.58,28.57,31.25,5.82,30.33,1006.86,2040.02,3375.99,3268.02,3533.00,349.44,316.51,5.66,0000 0000 0000 0000 000000
2013-11-14 01:15:58,-0.02,0.27,0.00,26.61,28.57,31.30,5.88,30.71,1006.85,2040.04,3375.95,3268.00,3532.98,351.10,317.71,5.66,0000 0000 0000 0000 000000
2013-11-14 01:16:58,0.02,0.27,0.00,26.67,28.57,31.30,5.93,30.54,1006.86,2040.02,3375.86,3268.00,3532.98,350.86,317.95,5.67,0000 0000 0000 0000 000000
2013-11-14 01:17:59,0.00,0.27,0.00,26.75,28.58,31.25,5.86,30.46,1006.86,2040.02,3375.74,3268.00,3532.97,350.92,317.56,5.67,0000 0000 0000 0000 000000
2013-11-14 01:18:59,0.04,0.27,0.00,26.74,28.59,31.25,5.80,30.42,1006.87,2040.02,3375.71,3268.00,3532.96,350.57,317.37,5.68,0000 0000 0000 0000 000000
2013-11-14 01:19:59,-0.01,0.27,0.00,26.72,28.59,31.25,5.69,30.29,1006.86,2040.05,3375.51,3268.00,3532.95,348.81,315.80,5.68,0000 0000 0000 0000 000000
2013-11-14 01:20:59,0.05,0.28,0.00,26.71,28.60,31.27,5.69,30.25,1006.87,2040.05,3375.30,3268.00,3532.86,349.74,316.98,5.69,0000 0000 0000 0000 000000
2013-11-14 01:21:59,0.05,0.28,0.00,26.74,28.60,31.26,5.82,30.29,1006.87,2040.07,3375.16,3268.00,3532.75,350.12,316.97,5.70,0000 0000 0000 0000 000000
2013-11-14 01:23:00,0.03,0.28,0.00,26.77,28.60,31.27,5.72,30.58,1006.87,2040.06,3375.09,3268.00,3532.56,349.38,316.27,5.70,0000 0000 0000 0000 000000
2013-11-14 01:24:00,0.01,0.28,0.00,26.79,28.60,31.25,5.87,30.17,1006.86,2040.05,3375.03,3268.00,3532.32,350.73,317.47,5.71,0000 0000 0000 0000 000000
2013-11-14 01:25:00,0.05,0.28,0.00,26.83,28.60,31.26,5.87,30.58,1006.90,2040.08,3375.01,3268.00,3532.17,349.91,316.44,5.71,0000 0000 0000 0000 000000
2013-11-14 01:26:01,0.03,0.28,0.00,26.83,28.60,31.25,5.73,30.38,1006.89,2040.05,3375.00,3267.98,3532.08,349.35,316.52,5.72,0000 0000 0000 0000 000000
2013-11-14 01:27:01,0.00,0.28,0.00,26.82,28.60,31.22,5.79,30.58,1006.89,2040.06,3375.00,3267.97,3532.03,349.61,315.93,5.73,0000 0000 0000 0000 000000
2013-11-14 01:28:01,0.00,0.28,0.00,26.82,28.60,31.24,5.88,30.58,1006.95,2040.06,3375.00,3267.98,3532.00,350.45,317.42,5.73,0000 0000 0000 0000 000000
2013-11-14 01:29:01,0.00,0.28,0.00,26.74,28.60,31.22,5.89,30.58,1006.93,2040.04,3374.98,3267.92,3532.00,350.92,317.75,5.74,0000 0000 0000 0000 000000
2013-11-14 01:30:02,0.00,0.28,0.00,26.74,28.60,31.22,5.86,30.54,1006.93,2040.02,3374.87,3267.78,3532.00,350.20,316.97,5.74,0000 0000 0000 0000 000000
2013-11-14 01:31:02,0.02,0.28,0.00,26.75,28.60,31.19,5.84,30.42,1007.01,2040.03,3374.75,3267.80,3532.00,350.50,317.34,5.75,0000 0000 0000 0000 000000
2013-11-14 01:32:02,0.01,0.28,0.00,26.79,28.60,31.20,5.93,30.50,1006.94,2040.06,3374.69,3267.85,3532.00,349.40,316.29,5.75,0000 0000 0000 0000 000000
2013-11-14 01:33:02,0.03,0.28,0.00,26.76,28.60,31.19,5.69,30.46,1007.01,2040.06,3374.47,3267.74,3532.00,349.62,316.53,5.76,0000 0000 0000 0000 000000
2013-11-14 01:34:03,0.06,0.28,0.00,26.75,28.60,31.18,5.94,30.50,1007.09,2040.04,3374.24,3267.50,3532.00,351.04,317.86,5.77,0000 0000 0000 0000 000000
2013-11-14 01:35:03,0.07,0.28,0.00,26.76,28.60,31.20,5.71,30.58,1007.08,2040.04,3374.12,3267.33,3531.99,348.43,315.48,5.77,0000 0000 0000 0000 000000
2013-11-14 01:36:03,0.05,0.28,0.00,26.75,28.60,31.20,5.77,30.54,1007.05,2040.04,3374.05,3267.18,3531.98,349.25,316.22,5.78,0000 0000 0000 0000 000000
2013-11-14 01:37:03,0.02,0.28,0.00,26.76,28.60,31.19,5.77,30.38,1007.02,2040.02,3374.02,3267.08,3531.94,350.06,316.93,5.78,0000 0000 0000 0000 000000
2013-11-14 01:38:04,0.01,0.28,0.00,26.78,28.59,31.21,5.75,30.46,1007.11,2040.02,3374.00,3267.06,3531.96,348.50,315.53,5.79,0000 0000 0000 0000 000000
2013-11-14 01:39:04,0.00,0.28,0.00,26.80,28.60,31.19,5.76,30.21,1007.16,2040.00,3374.00,3267.04,3531.88,349.27,316.22,5.80,0000 0000 0000 0000 000000
2013-11-14 01:40:04,0.01,0.28,0.00,26.79,28.60,31.17,5.66,30.25,1007.23,2040.02,3373.98,3267.02,3531.73,349.40,316.37,5.80,0000 0000 0000 0000 000000
2013-11-14 01:41:04,0.03,0.28,0.00,26.81,28.59,31.16,5.82,30.54,1007.16,2040.03,3373.97,3267.01,3531.47,349.84,316.73,5.81,0000 0000 0000 0000 000000
2013-11-14 01:42:04,0.05,0.28,0.00,26.84,28.59,31.19,5.74,30.71,1007.13,2040.01,3373.85,3267.00,3531.23,349.14,316.09,5.81,0000 0000 0000 0000 000000
2013-11-14 01:43:05,0.03,0.28,0.00,26.86,28.58,31.17,5.84,30.67,1007.20,2040.03,3373.58,3267.00,3531.10,349.03,315.96,5.82,0000 0000 0000 0000 000000
2013-11-14 01:44:05,0.06,0.28,0.00,26.89,28.58,31.18,5.78,30.63,1007.19,2040.02,3373.35,3267.00,3531.04,348.76,315.74,5.82,0000 0000 0000 0000 000000
2013-11-14 01:45:05,0.03,0.28,0.00,26.89,28.57,31.21,5.80,30.50,1007.12,2040.01,3373.15,3267.00,3531.01,350.31,317.06,5.83,0000 0000 0000 0000 000000
2013-11-14 01:46:06,0.01,0.28,0.00,26.90,28.57,31.19,5.85,30.50,1007.16,2040.01,3373.06,3267.00,3531.00,349.00,316.50,5.84,0000 0000 0000 0000 000000
2013-11-14 01:47:06,0.01,0.28,0.00,26.94,28.57,31.14,5.75,30.25,1007.14,2040.04,3373.02,3267.00,3531.00,349.16,316.10,5.84,0000 0000 0000 0000 000000
2013-11-14 01:48:06,0.02,0.28,0.00,26.96,28.57,31.14,5.89,30.42,1007.13,2040.02,3373.00,3266.99,3531.00,348.94,315.90,5.85,0000 0000 0000 0000 000000
2013-11-14 01:49:07,0.00,0.28,0.00,26.97,28.57,31.14,5.76,30.25,1007.08,2040.03,3373.00,3266.97,3531.00,349.96,316.66,5.85,0000 0000 0000 0000 000000
2013-11-14 01:50:07,0.02,0.28,0.00,26.97,28.57,31.17,5.85,30.58,1006.94,2040.02,3373.00,3266.98,3530.99,349.12,315.84,5.86,0000 0000 0000 0000 000000
2013-11-14 01:51:07,-0.01,0.28,0.00,26.96,28.57,31.19,5.85,30.42,1006.93,2040.01,3373.00,3266.98,3530.99,349.76,316.43,5.87,0000 0000 0000 0000 000000
2013-11-14 01:52:08,-0.01,0.28,0.00,26.95,28.57,31.21,5.82,30.46,1007.05,2040.01,3372.99,3266.99,3530.99,349.30,316.06,5.87,0000 0000 0000 0000 000000
2013-11-14 01:53:08,0.00,0.28,0.00,26.97,28.57,31.21,5.82,30.42,1007.06,2040.00,3372.99,3266.98,3530.98,350.19,316.85,5.88,0000 0000 0000 0000 000000
2013-11-14 01:54:08,0.00,0.28,0.00,26.97,28.57,31.20,5.88,30.42,1006.98,2040.01,3372.96,3266.95,3530.98,349.94,316.60,5.88,0000 0000 0000 0000 000000
2013-11-14 01:55:08,0.00,0.28,0.00,26.94,28.57,31.23,5.99,30.50,1007.03,2040.00,3372.94,3266.93,3530.93,351.22,317.69,5.89,0000 0000 0000 0000 000000
2013-11-14 01:56:09,0.01,0.28,0.00,26.97,28.57,31.17,5.86,30.38,1007.00,2040.00,3372.88,3266.97,3530.90,350.12,316.74,5.90,0000 0000 0000 0000 000000
2013-11-14 01:57:09,0.01,0.28,0.00,26.96,28.56,31.18,5.71,30.04,1007.02,2040.03,3372.78,3266.91,3530.75,349.65,316.36,5.90,0000 0000 0000 0000 000000
2013-11-14 01:58:09,0.06,0.28,0.00,26.98,28.56,31.21,5.82,30.71,1006.93,2040.04,3372.54,3266.83,3530.59,349.53,316.20,5.91,0000 0000 0000 0000 000000
2013-11-14 01:59:09,0.09,0.28,0.00,26.97,28.55,31.24,5.84,30.63,1006.95,2040.03,3372.27,3266.56,3530.32,350.02,316.67,5.91,0000 0000 0000 0000 000000
2013-11-14 02:00:10,0.11,0.28,0.00,26.95,28.55,31.17,5.79,30.38,1006.91,2040.05,3372.13,3266.41,3530.15,349.69,316.50,5.92,0000 0000 0000 0000 000000
2013-11-14 02:01:10,0.09,0.28,0.00,26.98,28.55,31.18,5.79,30.38,1006.87,2040.02,3372.05,3266.25,3530.06,350.38,316.95,5.92,0000 0000 0000 0000 000000
2013-11-14 02:02:10,0.03,0.28,0.00,27.02,28.55,31.14,5.73,30.42,1006.91,2040.01,3372.02,3266.12,3530.02,349.86,316.44,5.93,0000 0000 0000 0000 000000
2013-11-14 02:03:10,0.02,0.28,0.00,27.00,28.55,31.19,5.82,30.46,1006.89,2040.02,3372.00,3266.07,3530.00,350.34,316.90,5.94,0000 0000 0000 0000 000000
2013-11-14 02:04:11,0.02,0.28,0.00,26.98,28.55,31.20,5.76,30.21,1006.92,2040.02,3372.00,3266.03,3530.00,350.62,316.95,5.94,0000 0000 0000 0000 000000
2013-11-14 02:05:11,0.01,0.28,0.00,26.98,28.55,31.25,5.83,30.33,1006.91,2040.02,3371.97,3266.01,3530.00,350.23,316.82,5.95,0000 0000 0000 0000 000000
2013-11-14 02:06:11,0.00,0.28,0.00,26.99,28.55,31.24,5.83,30.38,1006.91,2040.02,3371.94,3266.02,3530.00,350.02,316.95,5.95,0000 0000 0000 0000 000000
2013-11-14 02:07:11,-0.00,0.28,0.00,27.00,28.55,31.25,5.81,30.21,1006.92,2040.01,3371.96,3266.02,3530.00,350.44,316.91,5.96,0000 0000 0000 0000 000000
2013-11-14 02:08:12,-0.01,0.28,0.00,26.97,28.55,31.22,5.92,30.29,1006.92,2040.02,3371.93,3266.01,3530.00,351.33,317.83,5.97,0000 0000 0000 0000 000000
2013-11-14 02:09:12,0.01,0.28,0.00,26.99,28.55,31.23,5.89,30.33,1006.90,2040.02,3371.88,3266.04,3530.00,350.05,316.65,5.97,0000 0000 0000 0000 000000
2013-11-14 02:10:12,0.02,0.28,0.00,26.99,28.55,31.23,5.74,30.38,1006.94,2040.04,3371.68,3266.03,3529.99,350.04,316.65,5.98,0000 0000 0000 0000 000000
2013-11-14 02:11:13,0.05,0.28,0.00,27.01,28.55,31.21,5.82,30.46,1006.93,2040.03,3371.36,3266.00,3529.98,350.62,317.15,5.98,0000 0000 0000 0000 000000
2013-11-14 02:12:13,0.03,0.28,0.00,27.03,28.55,31.25,5.96,30.33,1006.89,2040.01,3371.18,3266.00,3529.98,350.56,317.06,5.99,0000 0000 0000 0000 000000
2013-11-14 02:13:13,0.00,0.28,0.00,27.02,28.55,31.27,5.84,30.13,1006.88,2040.03,3371.12,3266.00,3529.98,350.50,316.97,5.99,0000 0000 0000 0000 000000
2013-11-14 02:14:14,0.01,0.28,0.00,27.02,28.55,31.25,5.83,30.13,1006.87,2040.01,3371.05,3266.00,3529.88,350.48,317.00,6.00,0000 0000 0000 0000 000000
2013-11-14 02:15:14,0.01,0.28,0.00,27.02,28.55,31.21,5.93,30.38,1006.87,2040.01,3371.02,3266.00,3529.73,350.93,317.40,6.01,0000 0000 0000 0000 000000
2013-11-14 02:16:14,0.01,0.28,0.00,27.02,28.55,31.27,5.93,30.17,1006.90,2040.00,3371.00,3266.00,3529.66,350.43,316.97,6.01,0000 0000 0000 0000 000000
2013-11-14 02:17:14,0.01,0.28,0.00,27.02,28.55,31.18,5.73,30.25,1007.00,2040.00,3371.00,3266.00,3529.44,349.82,316.59,6.02,0000 0000 0000 0000 000000
2013-11-14 02:18:14,0.03,0.28,0.00,27.03,28.55,31.28,5.77,30.08,1007.04,2040.02,3371.00,3265.99,3529.29,350.71,317.06,6.02,0000 0000 0000 0000 000000
2013-11-14 02:19:15,0.02,0.28,0.00,27.03,28.55,31.26,5.84,30.38,1007.03,2040.01,3371.00,3265.98,3529.26,349.96,316.58,6.03,0000 0000 0000 0000 000000
2013-11-14 02:20:15,0.01,0.28,0.00,27.03,28.55,31.29,5.69,30.25,1006.99,2040.03,3370.95,3265.96,3529.18,350.17,316.43,6.04,0000 0000 0000 0000 000000
2013-11-14 02:21:15,0.03,0.28,0.00,27.03,28.55,31.26,5.76,30.38,1007.03,2040.03,3370.86,3265.95,3529.10,350.08,316.57,6.04,0000 0000 0000 0000 000000
2013-11-14 02:22:15,0.01,0.28,0.00,27.04,28.55,31.28,5.77,30.29,1007.13,2040.01,3370.69,3265.94,3529.05,349.40,316.08,6.05,0000 0000 0000 0000 000000
2013-11-14 02:23:15,0.01,0.28,0.00,27.04,28.55,31.25,5.71,30.25,1007.09,2040.03,3370.74,3265.95,3529.04,350.43,317.00,6.05,0000 0000 0000 0000 000000
2013-11-14 02:24:16,0.00,0.28,0.00,27.05,28.55,31.27,5.93,30.08,1007.06,2040.04,3370.54,3265.94,3529.01,350.41,316.96,6.06,0000 0000 0000 0000 000000
2013-11-14 02:25:16,0.04,0.28,0.00,27.06,28.55,31.29,5.81,30.17,1007.12,2040.06,3370.33,3265.88,3529.00,351.25,317.83,6.07,0000 0000 0000 0000 000000
2013-11-14 02:26:16,0.07,0.29,0.00,27.04,28.55,31.22,5.76,30.04,1007.11,2040.06,3370.22,3265.85,3529.00,350.10,316.95,6.07,0000 0000 0000 0000 000000
2013-11-14 02:27:16,0.00,0.29,0.00,27.06,28.55,31.24,5.85,30.21,1007.03,2040.06,3370.10,3265.82,3529.00,349.77,316.36,6.08,0000 0000 0000 0000 000000
2013-11-14 02:28:17,0.02,0.29,0.00,27.07,28.55,31.29,5.79,30.25,1007.04,2040.09,3370.05,3265.78,3529.00,350.12,316.66,6.08,0000 0000 0000 0000 000000
2013-11-14 02:29:17,0.03,0.29,0.00,27.09,28.55,31.32,5.93,30.00,1007.15,2040.10,3370.02,3265.69,3529.00,351.61,318.04,6.09,0000 0000 0000 0000 000000
2013-11-14 02:30:17,0.03,0.29,0.00,27.09,28.55,31.30,5.72,30.13,1007.17,2040.06,3370.00,3265.44,3529.00,350.36,316.91,6.09,0000 0000 0000 0000 000000
2013-11-14 02:31:18,0.03,0.29,0.00,27.08,28.55,31.34,5.76,30.00,1007.21,2040.12,3370.00,3265.30,3529.00,350.18,316.77,6.10,0000 0000 0000 0000 000000
2013-11-14 02:32:18,0.07,0.29,0.00,27.06,28.55,31.35,5.66,30.17,1007.25,2040.19,3370.00,3265.29,3529.00,349.38,316.08,6.11,0000 0000 0000 0000 000000
2013-11-14 02:33:18,0.05,0.29,0.00,27.04,28.55,31.29,5.90,30.25,1007.25,2040.19,3370.00,3265.19,3529.00,349.78,316.46,6.11,0000 0000 0000 0000 000000
2013-11-14 02:34:18,0.00,0.29,0.00,27.01,28.55,31.30,5.76,30.17,1007.32,2040.18,3369.99,3265.09,3529.00,349.48,316.22,6.12,0000 0000 0000 0000 000000
2013-11-14 02:35:19,0.01,0.29,0.00,26.95,28.55,31.32,5.73,30.25,1007.31,2040.19,3369.98,3265.07,3528.98,349.71,316.52,6.12,0000 0000 0000 0000 000000
2013-11-14 02:36:19,0.01,0.29,0.00,26.86,28.55,31.29,5.92,30.33,1007.29,2040.23,3369.94,3265.02,3528.97,349.44,316.35,6.13,0000 0000 0000 0000 000000
2013-11-14 02:37:19,0.02,0.29,0.00,26.73,28.55,31.31,5.93,30.29,1007.32,2040.22,3369.86,3265.02,3528.82,350.48,317.44,6.14,0000 0000 0000 0000 000000